Worland, WY

5:31 AM MDT on June 26, 2017 (GMT -0600)
Worland Municipal

Weather History for KWRL - February, 2013

Change the Weather History Date:

Thursday, February 21, 2013

  Actual Average Record
Temperature  
Mean Temperature 18 °F 26 °F  
Max Temperature 28 °F 40 °F 70 °F (1982)
Min Temperature 7 °F 13 °F -14 °F (2011)
Degree Days  
Heating Degree Days 47 39  
Month to date heating degree days 951 897  
Since 1 July heating degree days 5277 5745  
Cooling Degree Days 0 0  
Month to date cooling degree days 0 0  
Year to date cooling degree days 0 0  
Moisture  
Dew Point 13 °F    
Average Humidity 82    
Maximum Humidity 100    
Minimum Humidity 63    
Precipitation  
Precipitation T in 0.01 in 0.12 in (2015)
Month to date precipitation 0.19 0.14  
Year to date precipitation 0.32 0.37  
Sea Level Pressure  
Sea Level Pressure 30.02 in    
Wind  
Wind Speed 1 mph (SE)    
Max Wind Speed 7 mph    
Max Gust Speed 7 mph    
Visibility 8 miles    
Events Snow    
T = Trace of Precipitation, MM = Missing Value Source: NWS Daily Summary

Daily Weather History Graph

Daily Weather History Graph

Search for Another Location

Airport or City:

Trip Planner

Search our weather history database for the weather conditions in past years. The results will help you decide how hot, cold, wet, or windy it might be!

Date:

Astronomy

Feb. 21, 2013 Rise Set
Actual Time 7:01 AM MST 5:50 PM MST
Civil Twilight 6:32 AM MST 6:19 PM MST
Nautical Twilight 5:58 AM MST 6:52 PM MST
Astronomical Twilight 5:25 AM MST 7:26 PM MST
Moon 2:02 PM MST (2/21) 4:13 AM MST (2/21)
Length of Visible Light 11h 47m
Length of Day
10h 48m
Waxing Gibbous, 84% of the Moon is Illuminated
Feb 21
Waxing Gibbous
Feb 25
Full
Mar 4
Last Quarter
Mar 11
New
Mar 19
First Quarter

Hourly Weather History & Observations

Time (MST) Temp. Windchill Dew Point Humidity Pressure Visibility Wind Dir Wind Speed Gust Speed Precip Events Conditions
12:53 AM 14.0 °F 8.2 °F 10.9 °F 88% 29.96 in 8.0 mi South 3.5 mph - N/A   Clear
1:53 AM 9.0 °F 2.4 °F 6.1 °F 88% 29.99 in 8.0 mi South 3.5 mph - N/A   Scattered Clouds
2:53 AM 9.0 °F - 6.1 °F 88% 29.99 in 7.0 mi Calm Calm - N/A   Clear
3:32 AM 8.6 °F - 3.2 °F 79% 29.83 in 8.0 mi Calm Calm - N/A   Mostly Cloudy
3:53 AM 10.0 °F - 8.1 °F 92% 30.00 in 8.0 mi Calm Calm - N/A   Overcast
4:53 AM 12.9 °F - 9.0 °F 84% 30.00 in 8.0 mi Calm Calm - N/A   Overcast
5:53 AM 14.0 °F - 10.9 °F 88% 30.03 in 8.0 mi Calm Calm - N/A   Overcast
6:53 AM 16.0 °F - 12.9 °F 88% 30.06 in 8.0 mi Calm Calm - N/A   Overcast
7:44 AM 17.6 °F - 14.0 °F 86% 29.89 in 6.0 mi Calm Calm - N/A   Overcast
7:53 AM 17.1 °F - 15.1 °F 92% 30.08 in 6.0 mi Calm Calm - N/A   Overcast
8:53 AM 19.0 °F - 16.0 °F 88% 30.08 in 2.5 mi Calm Calm - 0.00 in Snow Light Snow
9:28 AM 19.4 °F - 17.6 °F 93% 29.91 in 1.8 mi Calm Calm - 0.00 in Snow Light Snow
9:37 AM 21.2 °F - 17.6 °F 86% 29.91 in 2.5 mi Calm Calm - 0.00 in   Overcast
9:53 AM 21.0 °F - 18.0 °F 88% 30.08 in 3.0 mi Calm Calm - 0.00 in   Overcast
10:53 AM 24.1 °F - 18.0 °F 77% 30.06 in 5.0 mi Calm Calm - N/A   Haze
11:53 AM 25.0 °F 19.3 °F 18.0 °F 75% 30.07 in 4.0 mi NE 4.6 mph - N/A   Haze
12:53 PM 26.1 °F - 18.0 °F 71% 30.04 in 10.0 mi Calm Calm - N/A   Overcast
1:53 PM 27.0 °F - 18.0 °F 69% 30.04 in 10.0 mi Calm Calm - N/A   Overcast
2:53 PM 27.0 °F - 18.0 °F 69% 30.04 in 10.0 mi Calm Calm - N/A   Overcast
3:53 PM 28.0 °F - 17.1 °F 63% 30.03 in 10.0 mi Calm Calm - N/A   Clear
4:53 PM 27.0 °F - 17.1 °F 66% 30.01 in 10.0 mi Calm Calm - N/A   Clear
5:53 PM 19.9 °F - 14.0 °F 78% 30.03 in 10.0 mi Calm Calm - N/A   Clear
6:53 PM 12.9 °F - 10.0 °F 88% 30.06 in 10.0 mi Calm Calm - N/A   Clear
7:53 PM 14.0 °F 3.9 °F 10.9 °F 88% 30.06 in 10.0 mi ESE 6.9 mph - N/A   Clear
8:53 PM 14.0 °F - 10.0 °F 84% 30.06 in 10.0 mi Calm Calm - N/A   Scattered Clouds
9:53 PM 16.0 °F - 14.0 °F 92% 30.06 in 10.0 mi Calm Calm - N/A   Mostly Cloudy
10:53 PM 15.1 °F - 12.0 °F 88% 30.05 in 9.0 mi Calm Calm - N/A   Overcast
11:53 PM 12.9 °F - 10.0 °F 88% 30.06 in 9.0 mi Calm Calm - N/A   Overcast